Weather History for Carrington Municipal Airport, ND

Change the Weather History Date:

Wednesday, February 12, 2014

  Actual Average (KJMS) Record (KJMS)
Temperature  
Mean Temperature 6 °F 14 °F  
Max Temperature 21 °F 24 °F 55 °F (1898)
Min Temperature -4 °F 4 °F -39 °F (1905)
Degree Days  
Heating Degree Days 60 51  
Month to date heating degree days 630  
Since 1 July heating degree days 5992  
Cooling Degree Days 0 0  
Month to date cooling degree days 0  
Year to date cooling degree days 0  
Moisture  
Dew Point 2 °F    
Average Humidity 84    
Maximum Humidity 100    
Minimum Humidity 72    
Precipitation  
Precipitation 0.10 in 0.02 in 0.13 in (1984)
Month to date precipitation 0.13  
Year to date precipitation 0.58  
Sea Level Pressure  
Sea Level Pressure 29.83 in    
Wind  
Wind Speed 14 mph (SSW)    
Max Wind Speed 30 mph    
Max Gust Speed 38 mph    
Visibility 9 miles    
Events Rain , Snow    
T = Trace of Precipitation, MM = Missing Value Source: NWS Daily Summary

Daily Weather History Graph

Daily Weather History Graph

Search for Another Location

Airport:

Trip Planner

Search our weather history database for the weather conditions in past years. The results will help you decide how hot, cold, wet, or windy it might be!

Date:

Astronomy

Feb. 12, 2014 Rise Set
Actual Time 7:46 AM CST 5:55 PM CST
Civil Twilight 7:14 AM CST 6:27 PM CST
Nautical Twilight 6:38 AM CST 7:03 PM CST
Astronomical Twilight 6:03 AM CST 7:39 PM CST
Moon 4:07 PM CST (2/12) 6:08 AM CST (2/12)
Length of Visible Light 11h 12m
Length of Day
10h 08m
Waxing Gibbous, 95% of the Moon is Illuminated
Feb 12
Waxing Gibbous
Feb 14
Full
Feb 22
Last Quarter
Mar 1
New
Mar 8
First Quarter

Hourly Weather History & Observations

Time (CST) Temp. Windchill Dew Point Humidity Pressure Visibility Wind Dir Wind Speed Gust Speed Precip Events Conditions
12:15 AM 1.4 °F -16.1 °F -0.4 °F 92% 30.06 in 10.0 mi NW 12.7 mph - N/A   Clear
12:35 AM 1.4 °F -17.6 °F -2.2 °F 85% 30.06 in 10.0 mi NNW 15.0 mph - N/A   Clear
12:55 AM 1.4 °F -16.1 °F -2.2 °F 85% 30.07 in 10.0 mi NW 12.7 mph - N/A   Clear
1:15 AM 1.4 °F -16.9 °F -2.2 °F 85% 30.08 in 10.0 mi NW 13.8 mph - N/A   Clear
1:35 AM 1.4 °F -16.9 °F -2.2 °F 85% 30.09 in 10.0 mi NW 13.8 mph - N/A   Clear
1:55 AM -0.4 °F -18.4 °F -4.0 °F 85% 30.09 in 10.0 mi NNW 12.7 mph - N/A   Clear
2:15 AM -0.4 °F -14.7 °F -4.0 °F 85% 30.09 in 10.0 mi NW 8.1 mph - N/A   Clear
2:35 AM -0.4 °F -15.7 °F -4.0 °F 85% 30.09 in 10.0 mi NW 9.2 mph - N/A   Clear
2:55 AM -0.4 °F -15.7 °F -4.0 °F 85% 30.10 in 10.0 mi WNW 9.2 mph - N/A   Clear
3:15 AM -0.4 °F -19.2 °F -4.0 °F 85% 30.10 in 10.0 mi NW 13.8 mph - N/A   Clear
3:35 AM -0.4 °F -17.6 °F -4.0 °F 85% 30.10 in 10.0 mi WNW 11.5 mph - N/A   Clear
3:55 AM -0.4 °F -17.6 °F -4.0 °F 85% 30.10 in 10.0 mi WNW 11.5 mph - N/A   Clear
4:15 AM -0.4 °F -14.7 °F -4.0 °F 85% 30.10 in 10.0 mi WNW 8.1 mph - N/A   Clear
4:35 AM -2.2 °F -18.9 °F -4.0 °F 92% 30.11 in 10.0 mi WNW 10.4 mph - N/A   Clear
4:55 AM -2.2 °F -19.9 °F -5.8 °F 85% 30.09 in 10.0 mi WNW 11.5 mph - N/A   Clear
5:15 AM -2.2 °F -20.7 °F -5.8 °F 85% 30.10 in 10.0 mi WNW 12.7 mph - N/A   Clear
5:35 AM -2.2 °F -19.9 °F -5.8 °F 85% 30.10 in 10.0 mi WNW 11.5 mph - N/A   Clear
5:55 AM -2.2 °F -20.7 °F -5.8 °F 85% 30.11 in 10.0 mi WNW 12.7 mph - N/A   Clear
6:15 AM -2.2 °F -19.9 °F -7.6 °F 78% 30.11 in 10.0 mi NW 11.5 mph - N/A   Scattered Clouds
6:35 AM -2.2 °F -18.0 °F -7.6 °F 78% 30.11 in 10.0 mi WNW 9.2 mph - N/A   Partly Cloudy
6:55 AM -2.2 °F -18.9 °F -7.6 °F 78% 30.11 in 10.0 mi WNW 10.4 mph - N/A   Clear
7:15 AM -4.0 °F -17.8 °F -7.6 °F 85% 30.12 in 10.0 mi West 6.9 mph - N/A   Clear
7:35 AM -4.0 °F -17.8 °F -9.4 °F 78% 30.11 in 10.0 mi WNW 6.9 mph - N/A   Clear
7:55 AM -4.0 °F -17.8 °F -9.4 °F 78% 30.10 in 10.0 mi WSW 6.9 mph - N/A   Clear
8:15 AM -4.0 °F -14.6 °F -9.4 °F 78% 30.09 in 10.0 mi West 4.6 mph - N/A   Clear
8:35 AM -4.0 °F -17.8 °F -9.4 °F 78% 30.08 in 10.0 mi West 6.9 mph - N/A   Clear
8:55 AM -2.2 °F -14.2 °F -7.6 °F 78% 30.07 in 10.0 mi West 5.8 mph - N/A   Clear
9:15 AM -2.2 °F -10.4 °F -7.6 °F 78% 30.06 in 10.0 mi WSW 3.5 mph - N/A   Clear
9:35 AM -2.2 °F -15.6 °F -7.6 °F 78% 30.05 in 10.0 mi West 6.9 mph - N/A   Clear
9:55 AM -0.4 °F - -7.6 °F 72% 30.03 in 10.0 mi Calm Calm - N/A   Clear
10:15 AM -0.4 °F -8.3 °F -5.8 °F 78% 30.03 in 10.0 mi SSE 3.5 mph - N/A   Clear
10:35 AM -0.4 °F -10.4 °F -5.8 °F 78% 30.03 in 10.0 mi SE 4.6 mph - N/A   Clear
10:55 AM -0.4 °F -12.0 °F -4.0 °F 85% 30.02 in 10.0 mi SSE 5.8 mph - N/A   Clear
11:15 AM 1.4 °F -12.5 °F -4.0 °F 78% 30.01 in 10.0 mi SSE 8.1 mph - N/A   Clear
11:35 AM 3.2 °F -11.3 °F -2.2 °F 78% 30.00 in 10.0 mi SSE 9.2 mph - N/A   Clear
11:55 AM 3.2 °F -13.9 °F -2.2 °F 78% 29.98 in 10.0 mi SSE 12.7 mph - N/A   Clear
12:15 PM 5.0 °F -13.0 °F -0.4 °F 78% 29.95 in 10.0 mi SSE 15.0 mph - N/A   Clear
12:35 PM 6.8 °F -10.7 °F -0.4 °F 72% 29.93 in 10.0 mi SSE 15.0 mph - N/A   Clear
12:55 PM 6.8 °F -11.8 °F 1.4 °F 79% 29.90 in 10.0 mi South 17.3 mph - N/A   Clear
1:15 PM 8.6 °F -8.9 °F 1.4 °F 73% 29.87 in 10.0 mi SSE 16.1 mph - N/A   Clear
1:35 PM 10.4 °F -7.7 °F 3.2 °F 73% 29.85 in 10.0 mi South 18.4 mph - N/A   Clear
1:55 PM 10.4 °F -8.2 °F 5.0 °F 79% 29.83 in 10.0 mi SSE 19.6 mph - N/A   Clear
2:15 PM 10.4 °F -8.2 °F 5.0 °F 79% 29.80 in 10.0 mi South 19.6 mph - N/A   Clear
2:35 PM 12.2 °F -5.8 °F 6.8 °F 79% 29.78 in 10.0 mi South 19.6 mph - N/A   Mostly Cloudy
2:55 PM 12.2 °F -5.3 °F 6.8 °F 79% 29.76 in 10.0 mi SSE 18.4 mph - N/A   Mostly Cloudy
3:15 PM 12.2 °F -5.3 °F 6.8 °F 79% 29.75 in 10.0 mi SSE 18.4 mph - N/A   Overcast
3:35 PM 14.0 °F -3.0 °F 8.6 °F 79% 29.73 in 10.0 mi SE 18.4 mph - N/A   Overcast
3:55 PM 14.0 °F -3.0 °F 8.6 °F 79% 29.73 in 10.0 mi SSE 18.4 mph - N/A   Overcast
4:15 PM 14.0 °F -4.3 °F 8.6 °F 79% 29.70 in 10.0 mi SE 21.9 mph - N/A   Overcast
4:35 PM 14.0 °F -4.7 °F 8.6 °F 79% 29.68 in 10.0 mi SE 23.0 mph 26.5 mph N/A   Mostly Cloudy
4:55 PM 12.2 °F -6.7 °F 8.6 °F 85% 29.66 in 10.0 mi SE 21.9 mph 27.6 mph N/A   Clear
5:15 PM 12.2 °F -8.2 °F 8.6 °F 85% 29.66 in 10.0 mi SSE 26.5 mph 29.9 mph N/A   Clear
5:35 PM 12.2 °F -8.2 °F 8.6 °F 85% 29.63 in 10.0 mi SSE 26.5 mph 31.1 mph N/A   Clear
5:55 PM 12.2 °F -8.6 °F 8.6 °F 85% 29.60 in 10.0 mi SSE 27.6 mph 34.5 mph N/A Snow Light Snow
6:15 PM 10.4 °F -11.0 °F 8.6 °F 92% 29.58 in 10.0 mi SSE 27.6 mph 32.2 mph N/A Snow Light Snow
6:35 PM 10.4 °F -9.5 °F 6.8 °F 85% 29.57 in 10.0 mi SE 23.0 mph 29.9 mph N/A   Clear
6:55 PM 10.4 °F -9.1 °F 6.8 °F 85% 29.57 in 10.0 mi SE 21.9 mph 28.8 mph N/A   Clear
7:15 PM 10.4 °F -11.0 °F 6.8 °F 85% 29.54 in 10.0 mi SSE 27.6 mph - N/A   Clear
7:35 PM 10.4 °F -11.0 °F 6.8 °F 85% 29.50 in 10.0 mi SSE 27.6 mph - N/A Snow Light Snow
7:55 PM 10.4 °F -11.0 °F 6.8 °F 85% 29.48 in 10.0 mi SE 27.6 mph 34.5 mph N/A Snow Light Snow
8:15 PM 10.4 °F -10.7 °F 8.6 °F 92% 29.45 in 10.0 mi SE 26.5 mph 32.2 mph N/A Snow Light Snow
8:35 PM 10.4 °F -11.0 °F 8.6 °F 92% 29.43 in 10.0 mi SSE 27.6 mph 32.2 mph N/A   Scattered Clouds
8:55 PM 12.2 °F -9.3 °F 8.6 °F 85% 29.41 in 10.0 mi SSE 29.9 mph 38.0 mph N/A Snow Light Snow
9:15 PM 12.2 °F -8.9 °F 10.4 °F 92% 29.39 in 0.5 mi SSE 28.8 mph 38.0 mph 0.03 in Snow Snow
9:35 PM 12.2 °F -8.9 °F 12.2 °F 100% 29.36 in 0.5 mi SSE 28.8 mph 38.0 mph 0.08 in Snow Snow
9:55 PM 14.0 °F -6.2 °F 14.0 °F 100% 29.33 in 0.8 mi SSE 27.6 mph 34.5 mph 0.10 in Snow Light Snow
10:15 PM 14.0 °F -6.8 °F 14.0 °F 100% 29.31 in 0.8 mi SSE 29.9 mph - N/A Snow Light Snow
10:35 PM 14.0 °F -6.5 °F 14.0 °F 100% 29.29 in 1.5 mi SSE 28.8 mph 35.7 mph N/A Rain Light Freezing Rain
10:55 PM 15.8 °F -2.3 °F 15.8 °F 100% 29.28 in 1.2 mi SSE 23.0 mph 29.9 mph N/A Snow Light Snow
11:15 PM 15.8 °F -0.2 °F 15.8 °F 100% 29.26 in 3.0 mi SSE 17.3 mph 28.8 mph N/A   Overcast
11:35 PM 15.8 °F 0.9 °F 15.8 °F 100% 29.25 in 8.0 mi SE 15.0 mph - N/A   Mostly Cloudy
11:55 PM 21.2 °F 7.3 °F 21.2 °F 100% 29.25 in 8.0 mi SSW 16.1 mph 23.0 mph N/A   Scattered Clouds